Volver al catálogo

TITAN 4 CENTAUR R/B

ActivoGEO
NORAD 27712·ROCKET BODY·🇺🇸 United States

Lanzado Apr 8, 2003 desde Cape Canaveral Space Force Station

Loading…

TLE

ActualizadoSource: Space-Track

Época: Sep 13, 2026, 23:08 UTC

1 27712U 03012B   26256.96413832  .00000086  00000-0  00000+0 0  9995
2 27712  11.2749  22.6844 0023193 278.3436  81.4262  1.00591107 26681

Sigue TITAN 4 CENTAUR R/B en tiempo real con AllMySat

Download on the App Store